CW2654 Weather Reports


time (UTC)temp
C
wind
direction
speed
KPH
gust
KPH
rain 1hr
cm
rain 24hr
cm
rain mn
cm
humidity
%
barometer
mb
20260507084553 10 0 0.0 4.8 0.00 0.00 0.00 88 1021.5
20260507083051 10 0 0.0 4.8 0.00 0.00 0.00 87 1021.5
20260507081553 10 203 0.0 4.8 0.00 0.00 0.00 87 1021.5
20260507080100 10 0 0.0 1.6 0.00 0.00 0.00 87 1021.5
20260507074606 10 0 0.0 1.6 0.00 0.00 0.00 88 1021.5
20260507073052 10 0 0.0 4.8 0.00 0.00 0.00 86 1021.3
20260507071554 11 0 0.0 4.8 0.00 0.00 0.00 87 1021.4
20260507070107 11 263 1.6 9.7 0.00 0.00 0.00 86 1021.4
20260507064604 11 0 0.0 11.3 0.00 0.00 0.00 86 1021.3
20260507063102 11 267 1.6 8.0 0.00 0.00 0.00 86 1021.5
20260507061552 11 258 1.6 9.7 0.00 0.00 0.00 87 1021.3
20260507060054 11 0 0.0 1.6 0.00 0.00 0.00 86 1021.2
20260507054557 11 0 0.0 1.6 0.00 0.00 0.00 87 1021.1
20260507053051 11 0 0.0 1.6 0.00 0.00 0.00 87 1021.1
20260507051555 11 179 0.0 8.0 0.00 0.00 0.00 86 1021.3
20260507050053 12 0 0.0 9.7 0.00 0.00 0.00 85 1021.1
20260507044553 12 0 0.0 9.7 0.00 0.00 0.00 85 1021.1
20260507043057 12 257 0.0 8.0 0.00 0.00 0.00 85 1021.0
20260507041555 12 0 0.0 9.7 0.00 0.00 0.00 85 1021.1
20260507040058 13 0 0.0 4.8 0.00 0.00 0.00 86 1020.7
20260507034550 13 0 0.0 3.2 0.00 0.00 0.00 87 1020.6
20260507033051 13 0 0.0 3.2 0.00 0.00 0.00 86 1020.5
20260507031548 13 0 0.0 3.2 0.00 0.00 0.00 85 1020.3
20260507030054 14 272 0.0 3.2 0.00 0.00 0.00 83 1020.1
20260507024548 15 0 0.0 4.8 0.00 0.00 0.00 82 1020.0
20260507023051 15 0 0.0 3.2 0.00 0.00 0.00 81 1020.0
20260507021552 16 0 1.6 9.7 0.00 0.00 0.00 80 1020.0
20260507020053 16 242 0.0 11.3 0.00 0.00 0.00 81 1020.1
20260507014557 16 0 0.0 4.8 0.00 0.00 0.00 81 1020.2
20260507013108 16 0 0.0 1.6 0.00 0.00 0.00 81 1020.2
20260507011550 16 0 0.0 4.8 0.00 0.00 0.00 80 1020.3
20260507004555 16 320 0.0 4.8 0.00 0.00 0.00 79 1020.3
20260507003053 16 0 0.0 6.4 0.00 0.00 0.00 77 1020.3
20260507001555 16 0 0.0 6.4 0.00 0.00 0.00 77 1020.4
20260507000054 17 348 0.0 6.4 0.00 0.00 0.00 76 1020.3
20260506234555 17 5 0.0 8.0 0.00 0.00 0.00 74 1020.2
20260506233106 17 286 0.0 4.8 0.00 0.00 0.00 76 1020.4
20260506231605 17 0 1.6 9.7 0.00 0.00 0.00 74 1020.4
20260506230103 16 0 0.0 9.7 0.00 0.00 0.00 79 1020.4
20260506224556 16 0 0.0 4.8 0.00 0.00 0.00 79 1020.6
20260506223055 16 345 1.6 6.4 0.00 0.00 0.00 77 1020.7
20260506221559 16 0 1.6 9.7 0.00 0.00 0.00 77 1020.8
20260506220059 17 273 0.0 6.4 0.00 0.00 0.00 78 1020.8
20260506214600 17 0 0.0 6.4 0.00 0.00 0.00 79 1020.7
20260506213056 16 0 0.0 4.8 0.00 0.00 0.00 83 1021.0
20260506211607 16 344 0.0 8.0 0.00 0.00 0.00 81 1021.3
20260506210055 17 0 0.0 9.7 0.00 0.00 0.00 81 1021.2
20260506204556 17 259 0.0 11.3 0.00 0.00 0.00 78 1021.0
20260506203055 17 0 1.6 8.0 0.00 0.00 0.00 80 1021.0
20260506201554 16 0 1.6 6.4 0.00 0.00 0.00 84 1021.1
20260506200051 15 317 1.6 6.4 0.00 0.00 0.00 83 1021.4
20260506194554 15 313 1.6 6.4 0.00 0.00 0.00 84 1021.4
20260506193055 16 266 0.0 11.3 0.00 0.00 0.00 85 1021.4
20260506191552 15 0 1.6 6.4 0.00 0.00 0.00 82 1021.4
20260506190056 15 263 0.0 9.7 0.00 0.00 0.00 85 1021.3
20260506184559 15 223 1.6 9.7 0.00 0.00 0.00 85 1021.4
20260506183053 14 263 0.0 9.7 0.00 0.00 0.00 86 1021.3
20260506181553 14 0 0.0 8.0 0.00 0.00 0.00 88 1021.1
20260506180055 14 0 0.0 8.0 0.00 0.00 0.00 88 1021.2
20260506174554 13 304 0.0 4.8 0.00 0.00 0.00 89 1021.0
20260506173104 13 162 0.0 9.7 0.00 0.00 0.00 89 1021.0
20260506171602 13 258 1.6 9.7 0.00 0.00 0.00 89 1021.0
20260506170059 13 0 1.6 6.4 0.00 0.00 0.00 89 1021.0
20260506164610 13 0 0.0 6.4 0.00 0.00 0.00 91 1020.9
20260506163059 13 0 0.0 4.8 0.00 0.00 0.00 92 1020.5
20260506161555 12 0 0.0 6.4 0.00 0.00 0.00 94 1020.2
20260506160107 12 0 6.4 14.5 0.00 0.00 0.00 94 1020.2
20260506154555 11 0 0.0 3.2 0.00 0.00 0.00 94 1020.8
20260506153101 11 0 0.0 4.8 0.00 0.00 0.00 94 1021.0
20260506151550 12 0 0.0 4.8 0.00 0.00 0.00 93 1021.0
20260506150049 12 0 0.0 1.6 0.00 0.00 0.00 94 1020.7
20260506144551 12 257 0.0 3.2 0.00 0.00 0.00 94 1020.4
20260506143053 12 0 0.0 3.2 0.00 0.00 0.00 94 1020.0
20260506141606 11 267 0.0 4.8 0.00 0.00 0.00 94 1020.1
20260506140050 11 0 0.0 4.8 0.00 0.00 0.00 94 1019.9
20260506134549 11 0 0.0 6.4 0.00 0.00 0.00 94 1019.8
20260506133048 11 0 0.0 6.4 0.00 0.00 0.00 95 1019.5
20260506131555 11 0 0.0 4.8 0.00 0.00 0.00 95 1019.6
20260506130051 11 0 0.0 9.7 0.00 0.00 0.00 95 1019.6
20260506124553 11 0 0.0 1.6 0.00 0.00 0.00 95 1019.5
20260506123051 11 0 0.0 3.2 0.00 0.00 0.00 94 1019.5
20260506121559 12 0 0.0 4.8 0.00 0.00 0.00 94 1019.5
20260506120118 12 0 0.0 4.8 0.00 0.00 0.00 95 1019.1
20260506114550 12 0 0.0 0.0 0.00 0.00 0.00 96 1019.1
20260506113059 12 0 0.0 0.0 0.00 0.00 0.00 95 1018.9
20260506111552 12 0 0.0 0.0 0.00 0.00 0.00 95 1018.6
20260506110056 12 0 0.0 0.0 0.00 0.00 0.00 95 1018.4
20260506104554 12 0 0.0 0.0 0.00 0.00 0.00 95 1018.3
20260506103055 12 0 0.0 0.0 0.00 0.00 0.00 95 1018.0
20260506101554 12 0 0.0 3.2 0.00 0.00 0.00 95 1017.9
20260506100056 12 0 0.0 1.6 0.00 0.00 0.00 95 1017.9
20260506094553 12 0 0.0 1.6 0.00 0.00 0.00 95 1018.1
20260506093055 12 0 0.0 0.0 0.00 0.00 0.00 95 1017.9
20260506091550 12 0 0.0 0.0 0.00 0.00 0.00 95 1018.0
20260506090053 12 0 0.0 0.0 0.00 0.00 0.00 94 1017.9